Regional Weather Roundup
Issued by NWS

Home | Current Version | Previous Version | Text Only | Print | Product List | Glossary On
Versions: 1 2 3 4 5 6 7 8 9 10 11 12 13 14 15 16 17 18 19 20 21 22 23 24 25 26 27 28 29 30 31 32 33 34 35 36 37 38 39 40 41 42 43 44 45 46 47 48 49 50
000
ASUS46 KPQR 280810
RWROR

OREGON REGIONAL WEATHER ROUNDUP
NATIONAL WEATHER SERVICE PORTLAND OR
100 AM PDT THU MAY 28 2015

NOTE: "FAIR" INDICATES FEW OR NO CLOUDS BELOW 12,000 FEET WITH
NO SIGNIFICANT WEATHER AND/OR OBSTRUCTIONS TO VISIBILITY.

ORZ001>013-280900-
NORTHWEST OREGON


CITY           SKY/WX    TMP DP  RH WIND       PRES   REMARKS
ASTORIA        CLOUDY    53  51  93 SW3       30.08F
NEWPORT        CLOUDY    52  52 100 CALM      30.10F FOG
PORTLAND       CLEAR     63  53  70 N3        30.03S
VANCOUVER WA   CLEAR     60  50  69 CALM      30.03R
SCAPPOOSE      CLEAR     62  51  67 N8        30.02S
HILLSBORO      CLEAR     60  51  72 NW3       30.03R
AURORA         CLEAR     60  55  83 CALM      30.04R
MCMINNVILLE    CLEAR     57  52  83 W5        30.04R
SALEM          CLEAR     57  51  80 CALM      30.02S
CORVALLIS      CLEAR     55  50  82 NW10      30.05R
EUGENE         CLEAR     53  50  89 CALM      30.03S
$$

ORZ021-028-280900-
SOUTHWEST OREGON


CITY           SKY/WX    TMP DP  RH WIND       PRES   REMARKS
NORTH BEND     CLOUDY    52  52 100 N6        30.09F
BROOKINGS      CLOUDY    51  51 100 VRB3      30.07S
ROSEBURG       CLEAR     62  53  72 CALM      30.02S
SEXTON SUMMIT  CLEAR     54  46  74 N10       30.08F
MEDFORD        CLEAR     63  47  55 SW3       30.02S
$$

ORZ014>016-041-280900-
COLUMBIA GORGE


CITY           SKY/WX    TMP DP  RH WIND       PRES   REMARKS
TROUTDALE      CLEAR     60  53  77 CALM      30.02S
THE DALLES     CLEAR     68  53  58 N13       29.97S
$$

ORZ029>031-041-044-049-050-061>064-502-503-505>511-280900-
EASTERN OREGON


CITY           SKY/WX    TMP DP  RH WIND       PRES   REMARKS
REDMOND        CLEAR     50  46  86 CALM      30.07S
BEND             N/A     55  48  76 NW6       30.09S
PRINEVILLE     NOT AVBL
KLAMATH FALLS  CLEAR     50  42  74 SE3       30.09S
LAKEVIEW       CLEAR     48  37  66 N12       30.11S
HERMISTON      CLEAR     59  49  69 SW7       29.97R
PENDLETON      CLEAR     56  48  74 SE10      30.00S
JOHN DAY       CLEAR     52  44  74 CALM      30.10S
MEACHAM        CLEAR     41  39  93 CALM      30.08S
LA GRANDE      CLEAR     48  37  66 CALM      30.05S
BAKER CITY     CLEAR     45  43  93 CALM      30.08S
BURNS          CLEAR     46  40  79 W8        30.10S
ROME             N/A     50  44  80 E3        30.08R
ONTARIO        CLEAR     55  46  71 SW7       30.04S
$$



USA.gov is the U.S. government's official web portal to all federal, state and local government web resources and services.